Knoxville, TN

5:40 PM EDT on May 22, 2017 (GMT -0400)
McGhee Tyson

Weather History for KTYS - January, 2013

Change the Weather History Date:

Thursday, January 17, 2013

  Actual Average Record
Temperature  
Mean Temperature 37 °F 38 °F  
Max Temperature 42 °F 47 °F 74 °F (1943)
Min Temperature 31 °F 29 °F -5 °F (1982)
Degree Days  
Heating Degree Days 28 27  
Month to date heating degree days 335 459  
Since 1 July heating degree days 1695 1892  
Cooling Degree Days 0 0  
Month to date cooling degree days 2 0  
Year to date cooling degree days 2 0  
Moisture  
Dew Point 34 °F    
Average Humidity 88    
Maximum Humidity 96    
Minimum Humidity 79    
Precipitation  
Precipitation 1.50 in 0.14 in 1.51 in (2006)
Month to date precipitation 9.36 2.35  
Year to date precipitation 9.36 2.35  
Snow  
Snow 1.40 in 0.10 in - ()
Month to date snowfall 1.4 1.4  
Since 1 July snowfall 1.4 2.2  
Snow Depth 1.00 in    
Sea Level Pressure  
Sea Level Pressure 30.03 in    
Wind  
Wind Speed 11 mph (NNE)    
Max Wind Speed 28 mph    
Max Gust Speed 36 mph    
Visibility 4 miles    
Events Fog , Rain , Snow    
T = Trace of Precipitation, MM = Missing Value Source: NWS Daily Summary

Daily Weather History Graph

Daily Weather History Graph

Search for Another Location

Airport or City:

Trip Planner

Search our weather history database for the weather conditions in past years. The results will help you decide how hot, cold, wet, or windy it might be!

Date:

Astronomy

Jan. 17, 2013 Rise Set
Actual Time 7:44 AM EST 5:48 PM EST
Civil Twilight 7:16 AM EST 6:15 PM EST
Nautical Twilight 6:45 AM EST 6:47 PM EST
Astronomical Twilight 6:15 AM EST 7:17 PM EST
Moon 11:05 AM EST (1/17) No Moon Set
Length of Visible Light 10h 58m
Length of Day
10h 03m
Waxing Crescent, 37% of the Moon is Illuminated
Jan 17
Waxing Crescent
Jan 18
First Quarter
Jan 26
Full
Feb 3
Last Quarter
Feb 10
New

Hourly Weather History & Observations

Time (EST) Temp. Windchill Dew Point Humidity Pressure Visibility Wind Dir Wind Speed Gust Speed Precip Events Conditions
12:53 AM 42.1 °F - 39.9 °F 92% 30.07 in 9.0 mi Calm Calm - 0.00 in Rain Light Rain
1:33 AM 42.8 °F 40.1 °F 39.2 °F 87% 30.06 in 9.0 mi NE 4.6 mph - 0.00 in Rain Light Rain
1:53 AM 42.1 °F 39.2 °F 39.9 °F 92% 30.06 in 4.0 mi NNE 4.6 mph - 0.01 in Rain Light Rain
2:53 AM 42.1 °F 36.6 °F 39.9 °F 92% 30.04 in 10.0 mi NE 9.2 mph - 0.00 in Rain Light Rain
3:53 AM 42.1 °F 37.7 °F 39.0 °F 89% 30.04 in 10.0 mi NNE 6.9 mph - 0.01 in Rain Light Rain
4:31 AM 42.8 °F 38.0 °F 39.2 °F 87% 30.02 in 4.0 mi NNE 8.1 mph - 0.01 in Rain Light Rain
4:53 AM 42.1 °F 34.9 °F 37.9 °F 85% 30.02 in 4.0 mi NNE 13.8 mph - 0.02 in Rain Light Rain
5:53 AM 39.9 °F 31.4 °F 34.0 °F 79% 30.01 in 10.0 mi NNE 16.1 mph 21.9 mph 0.00 in   Overcast
6:53 AM 39.9 °F 33.9 °F 34.0 °F 79% 30.03 in 10.0 mi NNE 9.2 mph - N/A   Overcast
7:38 AM 39.2 °F 31.6 °F 35.6 °F 87% 30.00 in 4.0 mi NNE 12.7 mph - 0.00 in Rain Light Rain
7:53 AM 39.9 °F 33.4 °F 35.1 °F 83% 30.01 in 4.0 mi NNE 10.4 mph - 0.00 in Rain Light Rain
8:00 AM 39.2 °F 32.5 °F 35.6 °F 87% 30.01 in 6.0 mi NNE 10.4 mph - 0.00 in Rain Light Rain
8:24 AM 39.2 °F 31.2 °F 33.8 °F 81% 29.99 in 2.5 mi NNE 13.8 mph - 0.00 in Rain Light Rain
8:53 AM 37.9 °F 29.2 °F 34.0 °F 86% 30.01 in 3.0 mi NNE 15.0 mph - 0.03 in Rain Rain
9:05 AM 37.4 °F 28.9 °F 33.8 °F 87% 30.00 in 2.5 mi NNE 13.8 mph - 0.01 in Rain Light Rain
9:31 AM 37.4 °F 28.2 °F 33.8 °F 87% 29.98 in 3.0 mi NNE 16.1 mph - 0.04 in Rain Light Rain
9:38 AM 37.4 °F 28.9 °F 35.6 °F 93% 29.98 in 2.5 mi NNE 13.8 mph - 0.05 in Rain Rain
9:53 AM 37.9 °F 30.5 °F 35.1 °F 89% 30.02 in 2.5 mi North 11.5 mph - 0.07 in Rain Light Rain
10:04 AM 37.4 °F 29.3 °F 35.6 °F 93% 30.01 in 2.5 mi North 12.7 mph 20.7 mph 0.01 in Rain Rain
10:29 AM 37.4 °F 27.2 °F 35.6 °F 93% 29.98 in 2.5 mi North 19.6 mph 25.3 mph 0.05 in Rain Rain
10:53 AM 37.0 °F 27.4 °F 35.1 °F 93% 29.99 in 2.5 mi NE 17.3 mph 20.7 mph 0.11 in Rain Heavy Rain
11:23 AM 37.4 °F 27.5 °F 35.6 °F 93% 29.94 in 1.5 mi NE 18.4 mph - 0.09 in Rain Heavy Rain
11:53 AM 37.0 °F 27.4 °F 35.1 °F 93% 29.98 in 1.5 mi NE 17.3 mph - 0.20 in Rain Heavy Rain
12:16 PM 37.4 °F 26.9 °F 33.8 °F 87% 29.95 in 2.0 mi NE 20.7 mph 25.3 mph 0.06 in Rain Heavy Rain
12:25 PM 37.4 °F 26.6 °F 33.8 °F 87% 29.93 in 2.5 mi NE 21.9 mph 28.8 mph 0.07 in Rain Light Rain
12:39 PM 37.4 °F 28.2 °F 33.8 °F 87% 29.95 in 1.8 mi NE 16.1 mph 24.2 mph 0.12 in Rain Heavy Rain
12:53 PM 37.0 °F 28.5 °F 34.0 °F 89% 29.94 in 1.5 mi NE 13.8 mph 27.6 mph 0.18 in Rain Heavy Rain
1:02 PM 37.4 °F 28.5 °F 33.8 °F 87% 29.94 in 1.5 mi NE 15.0 mph - 0.05 in Rain Heavy Rain
1:14 PM 37.4 °F 27.8 °F 33.8 °F 87% 29.93 in 1.2 mi NE 17.3 mph 24.2 mph 0.12 in Rain Heavy Rain
1:26 PM 37.4 °F 27.5 °F 33.8 °F 87% 29.93 in 1.8 mi NE 18.4 mph - 0.17 in Rain Heavy Rain
1:39 PM 37.4 °F 26.4 °F 35.6 °F 93% 29.92 in 2.0 mi NNE 23.0 mph 28.8 mph 0.21 in Rain Rain
1:48 PM 37.4 °F 26.4 °F 35.6 °F 93% 29.92 in 1.5 mi NNE 23.0 mph 28.8 mph 0.24 in Rain Heavy Rain
1:53 PM 37.0 °F 27.0 °F 34.0 °F 89% 29.96 in 1.5 mi NE 18.4 mph 28.8 mph 0.25 in Rain Heavy Rain
2:00 PM 37.4 °F 29.3 °F 35.6 °F 93% 29.95 in 2.0 mi NNE 12.7 mph - 0.02 in Rain Heavy Rain
2:15 PM 37.4 °F 27.5 °F 33.8 °F 87% 29.92 in 1.5 mi NE 18.4 mph 26.5 mph 0.08 in Rain Heavy Rain
2:29 PM 37.4 °F 26.9 °F 33.8 °F 87% 29.91 in 2.5 mi NE 20.7 mph 27.6 mph 0.12 in Rain Rain
2:44 PM 37.4 °F 27.2 °F 33.8 °F 87% 29.91 in 3.0 mi NE 19.6 mph 26.5 mph 0.14 in Rain Light Rain
2:53 PM 37.0 °F 26.7 °F 35.1 °F 93% 29.92 in 4.0 mi NE 19.6 mph 27.6 mph 0.15 in Rain Light Rain
3:19 PM 35.6 °F 24.2 °F 32.0 °F 87% 29.92 in 1.5 mi NE 21.9 mph 29.9 mph 0.01 in Snow Light Snow
3:30 PM 33.8 °F 21.9 °F 32.0 °F 93% 29.93 in 1.0 mi NNE 21.9 mph 27.6 mph 0.03 in Snow Light Snow
3:31 PM 33.8 °F 21.9 °F 32.0 °F 93% 29.93 in 0.8 mi NNE 21.9 mph - 0.03 in Snow Light Snow
3:53 PM 33.1 °F 21.2 °F 30.9 °F 92% 29.98 in 0.5 mi NNE 20.7 mph 29.9 mph 0.09 in Fog , Snow Snow
4:13 PM 33.8 °F 23.2 °F 30.2 °F 87% 29.98 in 0.2 mi NNE 17.3 mph 31.1 mph 0.06 in Fog , Snow Heavy Snow
4:53 PM 32.0 °F 20.5 °F 30.9 °F 96% 30.02 in 0.2 mi NE 18.4 mph - 0.22 in Fog , Snow Snow
5:08 PM 32.0 °F 21.6 °F 30.2 °F 93% 30.01 in 0.5 mi NE 15.0 mph - 0.03 in Fog , Snow Snow
5:11 PM 33.8 °F 24.8 °F 30.2 °F 87% 30.01 in 1.5 mi NE 12.7 mph - 0.05 in Snow Light Snow
5:13 PM 33.8 °F 25.3 °F 30.2 °F 87% 30.02 in 1.5 mi NE 11.5 mph - 0.05 in Rain , Snow Light Rain
5:23 PM 33.8 °F 24.8 °F 30.2 °F 87% 30.03 in 1.0 mi NNE 12.7 mph - 0.07 in Snow Light Snow
5:34 PM 33.8 °F 25.3 °F 30.2 °F 87% 30.03 in 0.8 mi NNE 11.5 mph - 0.09 in Snow Snow
5:44 PM 33.8 °F 25.3 °F 30.2 °F 87% 30.04 in 0.8 mi North 11.5 mph - 0.10 in Snow Snow
5:53 PM 33.1 °F 23.4 °F 30.9 °F 92% 30.07 in 0.8 mi North 13.8 mph - 0.11 in Snow Snow
6:00 PM 33.8 °F 24.3 °F 30.2 °F 87% 30.06 in 1.0 mi North 13.8 mph - 0.01 in Snow Snow
6:11 PM 33.8 °F 24.8 °F 30.2 °F 87% 30.07 in 1.2 mi NNE 12.7 mph - 0.01 in Snow Light Snow
6:19 PM 33.8 °F 25.8 °F 30.2 °F 87% 30.09 in 1.5 mi North 10.4 mph - 0.02 in Snow Light Snow
6:53 PM 33.1 °F 26.1 °F 32.0 °F 96% 30.15 in 3.0 mi NNW 8.1 mph - 0.04 in Snow Light Snow
7:00 PM 33.8 °F 27.0 °F 32.0 °F 93% 30.15 in 7.0 mi NNW 8.1 mph - 0.00 in Snow Light Snow
7:53 PM 34.0 °F 26.0 °F 30.9 °F 89% 30.23 in 10.0 mi North 10.4 mph - 0.01 in   Mostly Cloudy
8:00 PM 33.8 °F 25.3 °F 30.2 °F 87% 30.22 in 10.0 mi North 11.5 mph - N/A   Mostly Cloudy
8:53 PM 34.0 °F 31.0 °F 30.0 °F 85% 30.28 in 10.0 mi North 3.5 mph - N/A   Partly Cloudy
9:53 PM 33.1 °F 27.7 °F 28.9 °F 85% 30.30 in 9.0 mi NNE 5.8 mph - N/A   Partly Cloudy
10:53 PM 33.1 °F - 28.9 °F 85% 30.33 in 8.0 mi Calm Calm - N/A   Partly Cloudy
11:53 PM 30.9 °F - 28.9 °F 92% 30.36 in 6.0 mi Calm Calm - N/A   Partly Cloudy